Zurück zum Katalog

FENGYUN 1C DEB

AktivSSO
NORAD 30092·DEBRIS·🇨🇳 China

Gestartet May 10, 1999 von Taiyuan Satellite Launch Center

Loading…

Nächste Überflüge (nächste 24 Stunden)

TLE

AktuellSource: Space-Track

Epoche: Sep 14, 2026, 01:37 UTC

1 30092U 99025QV  26257.06765090  .00000903  00000-0  29124-3 0  9997
2 30092  98.9245  92.7366 0082575 156.0145 327.6506 14.39880354 27020

Verfolge FENGYUN 1C DEB in Echtzeit mit AllMySat

Download on the App Store